Regional Weather Roundup
Issued by NWS Charleston, SC

Current Version | Previous Version | Graphics & Text | Print | Product List | Glossary On
Versions: 1 2 3 4 5 6 7 8 9 10 11 12 13 14 15 16 17 18 19 20 21 22 23 24 25 26 27 28 29 30 31 32 33 34 35 36 37 38 39 40 41 42 43 44 45 46 47 48 49 50
000
ASUS42 KCHS 300812
RWRCHS

REGIONAL WEATHER ROUNDUP
NATIONAL WEATHER SERVICE CHARLESTON SC
400 AM EDT SUN AUG 30 2015

NOTE: "FAIR" INDICATES FEW OR NO CLOUDS BELOW 12,000 FEET WITH NO
SIGNIFICANT WEATHER AND/OR OBSTRUCTIONS TO VISIBILITY.

NOT ALL STATIONS ARE QUALITY CONTROLLED BY THE NATIONAL
WEATHER SERVICE. USE DATA WITH CAUTION...ESPECIALLY
DEWPOINT OBSERVATIONS.

SCZ027-030-031-034>040-042>050-300900-
...SOUTHEAST SOUTH CAROLINA...

CITY           SKY/WX    TMP DP  RH WIND       PRES   REMARKS
N CHARLESTON   CLOUDY    74  72  93 NE5       30.08F
WATERFRONT PRK   N/A     79  76  91 VRB3      30.05F
MOUNT PLEASANT FAIR      73  73 100 CALM      30.08F
JOHNS ISLAND   FAIR      75  73  94 CALM      30.08S
PINOPOLIS        N/A     79  70  73 E6        30.01F
MONCKS CORNER  FAIR      73  66  78 CALM      30.09S
SUMMERVILLE    FAIR      70  70 100 CALM      30.10S
BEAUFORT MCAS  CLOUDY    76  73  91 NE5       30.07S THUNDER
BEAUFORT ARPT  TSTM      73  72  94 S9        30.08R
HILTON HEAD IS CLOUDY    73  73 100 CALM      30.08R
WALTERBORO     CLOUDY    73  70  88 NE3       30.09S
ALLENDALE      CLOUDY    73  64  73 CALM      30.08S

...SOUTHERN MIDLANDS AND PEE DEE...

CITY           SKY/WX    TMP DP  RH WIND       PRES   REMARKS
GEORGETOWN     NOT AVBL
KINGSTREE      NOT AVBL
ORANGEBURG     CLOUDY    71  61  70 NE3       30.10S
BARNWELL       FAIR      73  63  68 CALM      30.10S
AIKEN          FAIR      70  55  60 E6        30.13F
MANNING        CLOUDY    68  61  77 CALM      30.10S
COLUMBIA       CLOUDY    74  59  59 E5        30.10F
SUMTER         MOCLDY    68  61  78 NE2       30.09S
FLORENCE       PTCLDY    70  65  84 CALM      30.10F
MYRTLE BEACH   CLOUDY    75  66  73 N5        30.11F
N MYRTLE BEACH CLOUDY    72  67  84 N3        30.09F

$$

GAZ063-065-086>088-099>101-113>116-118-119-134>141-150-300900-
...SOUTHEAST GEORGIA...

CITY           SKY/WX    TMP DP  RH WIND       PRES   REMARKS
SAVANNAH ARPT  RAIN      73  69  87 W7        30.07S
HUNTER AAF     CLOUDY    72  72 100 W3        30.03F
FORT STEWART   LGT RAIN  73  72  94 CALM      30.06R
STATESBORO     CLOUDY    71  71 100 CALM      30.08R
SYLVANIA       CLOUDY    73  70  91 E3        30.09S
CLAXTON        NOT AVBL

...CSRA...CENTRAL AND FAR SOUTHEAST GEORGIA...

CITY           SKY/WX    TMP DP  RH WIND       PRES   REMARKS
THOMSON        CLOUDY    70  69  98 CALM      30.14F
AUGUSTA-BUSH   CLOUDY    69  67  93 CALM      30.08F
AUGUSTA-DANIEL CLOUDY    83  59  44 E5        30.10F
SWAINSBORO     PTSUNNY   75  68  78 E5        30.08F
VIDALIA        CLOUDY    72  70  94 NE5       30.06F
EASTMAN        CLOUDY    73  73 100 CALM      30.09S
HAZLEHURST     PTSUNNY   74  74 100 CALM      30.04F
ALMA           CLOUDY    74  73  97 E3        30.04F
WAYCROSS       DRIZZLE   77  76  98 E5        30.03F
JESUP          LGT RAIN  75  73  94 CALM      30.06S
BAXLEY         MOCLDY    75  73  94 CALM      30.05R
BRUNSWICK      CLOUDY    72  72 100 CALM      30.05F
SAINT SIMONS   CLOUDY    77  74  90 SW5       30.04F

$$

SCZ027-028-034-036>038-045-046-048>050-GAZ119-141-300900-
...LAKE AND SUPPLEMENTAL COASTAL OBSERVATIONS...

STATION/POSITION TIME  TEMP    WIND        PRES    WAVE   SWELL
                       AIR SEA DIR/SP/G            HT/PER HT/PER/DIR
                 (UTC) (F)     (DEG/KT/KT) (MB)    (FT/S) (FT/S/D)
UPR LAKE MARION  NOT AVBL
WINYAH BAY       NOT AVBL
LAKE MURRAY      0700   75        CALM     1019.3F
ACE BASIN NERRS  NOT AVBL
FORT PULASKI     NOT AVBL
SAPELO ISLAND    0700   80     150/  6     1017.0F

$$

ANZ835-935-AMZ111-154-330-350-352-354-370-450-454-472-300900-
...C-MAN AND BUOY OBSERVATIONS...

STATION/POSITION TIME  TEMP    WIND        PRES    WAVE   SWELL
                       AIR SEA DIR/SP/G            HT/PER HT/PER/DIR
                 (UTC) (F)     (DEG/KT/KT) (MB)    (FT/S) (FT/S/D)
BUOY 41004       0750   75 85  190/  6/ 12 1019.1R   4/11   3/11
BUOY 41008       0750   81 85  180/ 16/ 19 1017.2F   5/11   3/110/11
FOLLY BEACH CMAN 0700   81     100/ 10/ 11 1018.8F
CAPERS NEARSHORE 0708   81     100/  8/ 12 1018.9F
FRIPP NEARSHORE  0700   81     100/ 14/ 16 1017.8F


STATION/POSITION TIME  TEMP    WIND        PRES    WAVE   SWELL
                       AIR SEA DIR/SP/G            HT/PER HT/PER/DIR
                 (UTC) (F)     (DEG/KT/KT) (MB)    (FT/S) (FT/S/D)
5E ST. MARYS GA  0721      86                N/A     5/10   2/110/11
FRYING PAN BUOY  0750   80 81   80/  6/  8 1019.5F   4/10   3/130/10
BUOY 41025       0750   78 81  350/ 10/ 12 1018.6R   3/10   3/120/10
CAPE LOOKOUT NC  0700   74     350/  6/  7 1018.7F
BUOY 41002       0750   83 84  220/  8/ 10 1019.0F   5/11   5/110/11
BUOY 41010       0720   84 85  110/ 16/ 17 1016.6F
ST AUGUSTINE FL  0800   79 84  120/ 20/ 22 1016.1F


$$



USA.gov is the U.S. government's official web portal to all federal, state and local government web resources and services.